DELTA 1 DEB

Satellite information

Favourite Embed

Satellite Type and Status

DEBRISIN ORBIT

Key statistics

Satellite DELTA 1 DEB at a glance.

Uptime

17291

Days in orbit

Revolutions

≈ 13.9

Per day

Orbit

SSO

Sun Synchronous Orbit

Inclination

98.8

Latest

Satellite identification and parameters

Extended collection of information and parameters for DELTA 1 DEB.

Object identification

Identified? True

Debris? True

Object name: DELTA 1 DEB

International designator: 1978-026CE

Object number (NORAD): 12237

Object ID (CCSDS): 12237

Country: UNITED STATES OF AMERICA (US)

Current information (Y/N): Y

RCS size: SMALL

Orbital parameters

Period: 103.231 minutes

Inclination: 98.8221 deg

SMA: 7289.52 km

Apoapsis: 1090.165 km

Periapsis: 732.605 km

RAAN: 283.4211 deg

Eccentricy: 0.0245256

Argument of periapsis: 242.0035 deg

Mean anomaly: 115.6117 deg

Mean motion: 13.94936216 rev/day

Mean motion (dot): 0.00001531 rev/day2

B* drag term: 0.00091107 1/REarth

Two-line elements (TLE)

Creation date: July 6, 2025, 6:05 p.m.

Reference frame: TEME

Reference center: EARTH

Epoch: July 6, 2025, 6:09 a.m. UTC

TLE line 0: 0 DELTA 1 DEB

TLE line 1: 1 12237U 78026CE 25187.25680784 .00001531 00000-0 91107-3 0 9992

TLE line 2: 2 12237 98.8221 283.4211 0245256 242.0035 115.6117 13.94936216197225

Live tracking on map

Real-time ground track for satellite DELTA 1 DEB.

In-orbit conjunctions

A list of the most updated potential collisions computed for object DELTA 1 DEB.

Target Orbit TCA Probability of collision Miss distance Type
COSMOS 1428 LEO 2025-04-04 06:21:11 0.0001436467 277.0 (m) PAYLOAD
CZ-6A DEB LEO 2025-01-10 09:23:30 0.0001035534 769.0 (m) DEBRIS
COSMOS 1275 DEB LEO 2024-06-29 09:54:06 0.0001996921 131.0 (m) DEBRIS

Associated space launch

Earth observation satellite

DELTA 1 DEB was lifted into orbit during the mission ‘Delta 2910 | Landsat 3’, on board a Delta 2910 space rocket.

The launch took place on March 5, 1978, 5:54 p.m. from Space Launch Complex 2W.

For more information about the launch, click the button.

Launch to space Delta 2910 | Landsat 3
Delta 2910 | Landsat 3

Agency: N/A

Status: Launch Successful

Launch date: March 5, 1978, 5:54 p.m. UTC

Rocket: Delta 2910

Launch pad: Space Launch Complex 2W

Location: Vandenberg SFB, CA, USA

...

Latest news about this satellite

There are no fresh news available about this satellite. Check back as we update our databases every day.


Newsletter sign-up

Weekly statistics, charts and insights to help you stay on top of the space industry.